Location: Schommer Observatory
(40.5200°N, 74.4500°W)
Time: 21:34:23
(UTC-04:00)

Tiangong 2 - Pass Details

Date: 19 May 2018
Orbit: 382 x 385 km, 42.8° (Epoch: 22 May)

Event Time Altitude Azimuth Distance (km) Brightness Sun altitude
Exits shadow 03:47:02 39° 157° (SSE) 590 1.7 -17.6°
Drops below altitude 10° 03:49:19 10° 127° (SE) 1,395 4.0 -17.3°
Sets 03:51:25 0° 122° (ESE) 2,247 5.1 -17.0°
